Terminal Aerodrome Forecast
Issued by NWS

Home | Current Version | Previous Version | Text Only | Print | Product List | Glossary On
Versions: 1 2 3 4 5 6 7 8 9 10 11 12 13 14 15 16 17 18 19 20
000
FTUS41 KBOX 070916 AAD
TAFBAF
TAF AMD
KBAF 070916Z 0709/0806 01004KT 3SM -SN BR BKN004 BKN008 OVC028
     FM071300 00000KT 3SM BR OVC008
     FM071600 00000KT P6SM OVC008
     FM071800 00000KT P6SM OVC010
     FM072100 00000KT P6SM BKN020
     FM072300 VRB03KT P6SM BKN080=

USA.gov is the U.S. government's official web portal to all federal, state and local government web resources and services.